Theta_e
294 294 294 293 291 291 291 292 292 292 290 290 289 288 287 286 284 283 283 283 283 283 283 283 284 285 285 286 287 287 288 289 289 289 290 291 292 292
294 294 294 293 291 291 291 291 290 289 288 288 286 285 285 283 282 282 282 282 282 282 282 282 283 284 285 285 286 286 287 287 288 288 289 289 290 291
294 294 294 292 290 290 290 289 289 288 287 286 285 284 283 282 282 282 282 282 282 281 281 281 282 283 282 283 283 285 285 286 286 286 287 288 289 290
294 294 293 292 290 290 290 289 288 287 286 285 284 283 282 282 281 281 281 281 281 281 281 281 281 281 282 282 282 283 284 284 284 284 283 284 286 289
294 294 293 291 290 289 289 288 287 286 285 284 284 283 282 281 281 281 281 281 280 280 280 281 281 281 281 281 282 282 283 283 283 283 284 284 285 286
294 293 292 291 289 287 286 286 286 285 284 284 283 282 281 280 280 280 281 280 279 280 281 282 282 282 283 282 282 282 282 282 283 283 283 284 285 285
293 293 292 291 289 288 286 285 285 284 284 283 282 281 280 279 280 279 279 279 280 281 281 282 282 282 283 283 283 282 282 282 283 283 285 287 287 287
293 293 292 290 289 288 286 285 285 284 283 283 282 280 279 279 279 279 279 280 280 281 281 281 281 282 283 284 283 283 284 284 284 284 286 287 287 287
292 292 291 290 289 287 285 285 284 284 283 282 281 280 279 279 278 279 279 280 280 280 280 281 281 282 284 284 284 283 285 284 284 285 285 285 286 286
292 291 291 289 288 286 285 284 284 284 282 281 280 280 279 279 278 279 279 279 280 280 280 281 282 283 284 284 284 283 284 284 284 285 285 285 285 285
291 291 290 288 287 285 284 284 284 283 281 280 280 280 279 279 278 278 278 279 279 279 280 281 281 283 283 284 284 283 284 283 283 284 284 285 286 285
290 290 289 288 287 285 284 283 283 282 281 280 280 279 279 279 279 278 278 278 278 278 280 280 281 282 282 284 284 284 283 283 283 284 284 286 286 285
289 289 288 287 286 286 284 283 283 281 281 280 280 279 279 279 279 278 278 278 277 278 279 280 280 282 283 283 284 284 284 283 283 284 286 287 287 287
289 289 288 287 287 286 285 283 282 281 281 281 280 280 279 279 279 278 278 278 278 279 279 279 280 281 282 283 283 285 285 284 284 286 286 287 287 287
288 288 288 287 287 286 285 283 282 282 281 281 280 280 280 279 279 278 278 278 278 278 278 279 281 281 282 282 283 284 284 284 285 285 286 287 287 288
288 288 288 288 287 286 285 284 283 283 281 281 281 280 280 280 279 278 278 278 278 278 278 280 280 281 282 283 284 284 284 284 285 286 287 288 287 288
288 288 288 287 286 286 285 284 283 283 282 281 281 281 280 280 280 278 277 277 277 277 278 279 280 280 281 283 283 283 284 284 285 286 286 287 288 289
288 287 287 288 287 286 285 284 283 282 282 281 281 281 280 280 280 278 277 277 277 277 277 277 277 280 282 283 283 283 284 285 285 285 286 287 288 288
287 287 286 287 288 286 285 284 283 282 282 281 281 281 280 280 279 278 278 277 277 277 277 276 278 280 281 282 283 283 284 284 285 286 285 286 287 288
286 286 287 287 286 286 285 284 282 281 281 281 281 281 280 280 280 279 278 278 277 277 278 276 279 280 281 282 282 283 283 284 285 286 286 286 286 286
287 286 286 286 286 286 285 284 283 282 281 281 281 281 281 280 280 279 278 278 277 277 277 276 278 280 282 283 283 283 283 284 285 285 285 285 285 285
286 286 286 286 286 286 285 284 283 282 282 281 282 282 281 281 281 279 278 278 277 277 277 277 277 280 281 282 283 283 283 283 284 284 285 285 285 285
286 286 286 286 286 286 285 285 284 282 282 282 282 282 282 281 281 279 279 278 278 277 277 278 277 279 280 281 282 283 283 283 283 283 284 284 284 285
Wind_Speed
17 19 23 25 24 19 15 17 22 15 15 14 20 21 29 31 32 32 31 32 32 32 30 28 24 24 25 23 25 26 26 27 28 29 29 28 27 27
19 21 25 26 22 19 17 16 16 18 21 26 27 28 30 30 28 29 29 28 26 24 24 24 23 22 22 23 25 25 26 26 27 28 28 29 29 28
20 22 23 23 21 21 20 18 18 19 25 30 30 30 30 30 30 27 26 25 23 23 23 24 24 25 25 25 26 25 25 26 26 27 27 28 28 28
20 22 23 20 21 20 19 20 22 21 22 30 32 32 31 29 30 28 25 23 22 22 24 27 28 28 27 26 25 26 28 29 29 31 31 32 29 26
22 21 23 20 20 20 22 21 21 22 25 27 31 32 32 30 29 27 24 23 24 26 22 15 15 17 19 24 26 27 28 29 30 31 32 31 33 31
22 22 22 20 20 21 20 20 21 23 22 25 29 31 31 29 27 27 31 30 30 21 13 14 16 17 18 20 23 26 27 27 29 31 32 34 32 31
22 21 22 21 22 21 20 20 20 21 23 25 28 30 30 28 26 28 30 29 24 18 18 18 18 19 18 18 20 20 21 24 26 28 28 24 24 25
23 22 22 23 23 22 22 21 21 21 23 26 28 29 27 25 27 26 24 25 28 23 26 29 22 22 19 17 15 16 19 23 23 21 21 20 20 23
22 22 23 23 23 21 21 22 22 21 24 26 28 25 25 23 24 26 23 22 25 26 27 33 24 24 24 23 18 15 16 14 13 15 20 21 21 19
23 25 23 22 21 20 22 23 22 22 23 25 23 21 19 21 21 22 23 26 29 29 24 29 21 26 28 20 14 14 11 12 17 20 23 24 26 25
27 26 22 22 20 20 21 21 23 22 22 21 18 17 17 17 18 22 23 24 30 30 23 15 27 30 26 17 11 11 12 18 20 20 23 25 22 24
24 23 21 22 20 19 20 21 23 21 21 17 15 15 15 16 18 17 19 23 26 28 11 26 26 25 28 18 24 19 17 17 19 22 22 23 19 22
24 22 21 21 20 19 20 21 20 20 17 16 16 14 14 16 19 18 18 20 22 25 24 20 27 25 20 26 31 26 15 17 19 20 21 18 18 22
25 24 23 21 22 21 20 20 18 19 18 17 16 15 16 18 20 20 21 18 17 21 22 17 23 22 23 28 29 26 17 15 15 16 21 17 20 23
26 26 24 24 24 24 21 19 18 18 19 20 18 15 16 19 23 22 21 18 18 17 16 14 15 18 20 24 26 23 20 17 8 20 24 20 14 13
27 27 27 34 24 26 23 22 21 20 20 20 18 17 17 19 23 22 21 20 21 17 11 9 12 16 21 20 19 19 16 13 16 16 20 18 11 3
26 29 27 24 26 27 27 25 23 22 21 20 17 17 17 19 23 20 18 18 18 21 20 15 13 14 14 15 15 12 13 10 11 16 20 18 11 3
25 27 28 32 30 28 27 25 23 23 21 19 17 16 16 18 21 16 16 15 17 19 18 18 18 15 9 6 7 13 8 10 11 11 15 16 18 12
28 29 29 31 35 30 26 25 24 22 20 20 17 14 15 17 17 17 16 16 16 16 16 16 14 14 15 14 10 12 11 11 11 7 13 13 11 14
29 30 31 29 29 32 24 23 22 20 19 21 18 14 14 16 16 17 16 16 16 16 15 13 11 12 14 14 14 8 9 13 5 8 8 9 9 12
30 29 28 28 28 27 24 22 21 19 20 21 20 16 15 17 16 16 15 14 14 14 14 14 11 10 9 7 8 7 6 7 6 7 9 8 7 7
25 24 25 27 25 22 21 20 20 20 20 20 19 18 17 18 17 15 14 13 13 12 13 12 10 8 7 8 6 5 5 5 4 5 6 7 8 6
21 23 25 24 23 20 21 21 18 19 21 22 22 17 17 18 15 14 13 11 12 11 11 10 8 7 7 7 7 5 4 6 6 5 3 4 6 6
Wind_Direction
307 311 318 319 321 318 310 298 294 299 301 307 307 299 302 304 303 304 303 299 296 293 292 292 291 288 286 283 279 280 275 274 275 273 273 272 275 272
309 314 320 320 317 315 312 303 300 305 305 308 309 309 309 309 311 311 307 305 301 296 292 292 290 286 283 277 277 277 274 274 274 273 273 272 270 271
311 315 316 317 315 312 307 307 306 300 296 303 308 311 312 313 314 311 309 305 303 301 299 295 291 288 285 281 278 274 272 274 277 277 275 274 273 269
308 308 314 309 311 302 297 298 297 294 298 305 308 311 313 315 314 313 312 307 306 305 303 299 295 287 279 275 275 273 271 274 277 278 277 275 275 267
304 301 312 300 304 299 297 288 288 293 303 304 307 311 313 317 316 317 317 313 312 316 316 309 315 317 302 280 272 272 273 275 276 278 279 278 270 271
293 296 307 296 299 300 296 291 294 300 301 304 306 310 313 318 318 321 319 321 320 325 323 315 317 319 306 299 287 277 272 273 275 275 280 278 268 263
295 297 301 298 299 302 299 295 297 299 301 304 307 311 313 316 319 320 318 322 324 330 327 317 323 317 313 304 291 283 276 271 273 277 288 274 265 268
293 291 293 298 298 300 298 295 299 299 302 305 308 308 310 315 318 319 324 325 323 332 325 315 320 311 317 310 294 289 286 278 272 275 288 259 269 265
287 291 293 295 291 297 295 295 297 298 301 303 306 306 308 315 316 316 320 318 315 313 318 311 318 319 324 303 293 281 291 290 277 287 289 278 267 256
282 291 285 293 295 295 291 289 290 294 297 298 299 303 306 314 315 314 309 303 300 304 316 307 324 322 326 323 300 264 269 295 287 280 300 286 267 262
275 282 283 292 296 295 287 284 287 292 296 297 298 302 303 309 315 309 307 308 308 312 323 303 324 327 331 335 334 288 266 289 289 283 298 294 276 263
283 279 277 286 289 295 291 284 285 294 295 291 294 295 296 306 317 314 307 304 306 313 301 315 317 328 323 331 324 312 300 289 286 291 296 290 272 265
278 275 275 278 281 291 294 284 285 290 292 290 295 303 310 314 320 321 311 307 301 294 306 311 306 315 319 311 318 328 316 307 293 296 309 285 268 263
277 276 277 271 275 281 287 286 279 290 288 290 293 307 315 320 325 321 317 311 298 298 306 297 292 303 310 310 318 324 322 309 304 318 310 296 268 265
279 282 280 269 271 268 280 279 277 285 282 284 289 300 313 319 325 321 316 312 306 303 299 295 288 294 303 309 310 316 320 319 314 330 328 334 297 268
282 278 288 266 267 268 272 270 272 281 272 278 286 295 307 315 321 319 317 319 322 324 321 297 290 296 301 308 311 311 312 311 332 340 333 341 328 300
283 282 272 265 269 271 272 273 268 274 267 271 281 290 301 311 319 318 316 316 324 329 330 326 305 302 304 305 326 309 309 322 326 337 341 359 15 316
277 280 278 268 267 272 274 272 267 269 266 262 271 282 295 307 317 315 313 315 321 331 334 333 332 326 327 331 338 351 346 337 333 344 353 17 34 69
271 278 278 278 267 270 272 272 271 269 265 246 260 275 287 304 312 314 311 317 322 328 339 341 343 341 341 338 336 341 345 340 338 353 11 15 40 62
269 276 278 279 281 270 269 271 274 266 246 241 250 264 277 294 307 310 306 315 321 329 337 348 344 343 336 333 328 351 4 2 42 9 17 32 23 38
275 281 280 280 285 275 268 268 265 259 248 244 249 255 270 282 300 302 306 312 313 324 331 344 346 345 342 352 345 352 353 7 21 4 358 16 28 29
276 281 284 281 284 269 260 258 256 249 244 242 248 258 263 274 292 291 301 309 311 318 327 334 335 338 344 7 17 19 14 14 2 352 353 0 16 18
281 285 288 280 283 264 253 253 251 249 246 248 250 257 253 263 283 283 291 303 305 315 322 327 338 329 343 355 354 351 0 6 17 15 356 8 16 21